Location: Buch
(49.7331°N, 12.1098°E)
Time: 00:12:31
(UTC+00:00)

Cosmos 1782 - Pass Details

Date: 12 May 2021
Orbit: 537 x 550 km, 82.5° (Epoch: 18 June)

Event Time Altitude Azimuth Distance (km) Brightness Sun altitude
Rises 20:16:41 0° 203° (SSW) 2,706 6.1 -12.1°
Reaches altitude 10° 20:18:54 10° 209° (SSW) 1,816 5.3 -12.3°
Maximum altitude 20:22:46 48° 284° (WNW) 725 3.8 -12.7°
Drops below altitude 10° 20:26:39 10° 360° (N) 1,823 6.3 -13.1°
Sets 20:28:53 0° 6° (N) 2,718 7.1 -13.4°
